This is the latest recevied weather packets stored in our database for station/object DG8SF-13. If no packets are shown the sender has not sent any weather packets the latest 10 day(s).
| Time | Temp. | Humidity | Pressure | Rain* | Wind** | Luminosity | Snow |
|---|---|---|---|---|---|---|---|
| 1788083629 | 25° C | 57% | 1016.1 hPa | 0 mm | - | - | - |
| 1788083319 | 25° C | 58% | 1016.1 hPa | 0 mm | - | - | - |
| 1788083004 | 24.44° C | 60% | 1016.3 hPa | 0 mm | - | - | - |
| 1788082695 | 23.89° C | 60% | 1016.2 hPa | 0 mm | - | - | - |
| 1788082385 | 23.33° C | 61% | 1016.3 hPa | 0 mm | - | - | - |
| 1788082069 | 23.33° C | 61% | 1016.3 hPa | 0 mm | - | - | - |
| 1788081758 | 23.33° C | 61% | 1016.3 hPa | 0 mm | - | - | - |
| 1788081450 | 23.33° C | 61% | 1016.4 hPa | 0 mm | - | - | - |
| 1788081132 | 23.33° C | 62% | 1016.5 hPa | 0 mm | - | - | - |
| 1788080824 | 23.33° C | 62% | 1016.5 hPa | 0 mm | - | - | - |
| 1788080498 | 23.33° C | 61% | 1016.5 hPa | 0 mm | - | - | - |
| 1788080174 | 22.78° C | 62% | 1016.4 hPa | 0 mm | - | - | - |
| 1788079861 | 22.78° C | 63% | 1016.4 hPa | 0 mm | - | - | - |
| 1788079549 | 23.33° C | 62% | 1016.4 hPa | 0 mm | - | - | - |
| 1788079236 | 22.78° C | 64% | 1016.5 hPa | 0 mm | - | - | - |
| 1788078926 | 21.67° C | 65% | 1016.6 hPa | 0 mm | - | - | - |
| 1788078614 | 22.22° C | 65% | 1016.5 hPa | 0 mm | - | - | - |
| 1788078301 | 21.67° C | 67% | 1016.5 hPa | 0 mm | - | - | - |
| 1788077988 | 21.67° C | 67% | 1016.5 hPa | 0 mm | - | - | - |
| 1788077679 | 21.67° C | 67% | 1016.6 hPa | 0 mm | - | - | - |
| 1788077364 | 21.11° C | 68% | 1016.5 hPa | 0 mm | - | - | - |
| 1788077055 | 21.11° C | 67% | 1016.5 hPa | 0 mm | - | - | - |
| 1788076741 | 20.56° C | 70% | 1016.5 hPa | 0 mm | - | - | - |
| 1788076430 | 21.11° C | 69% | 1016.4 hPa | 0 mm | - | - | - |
| 1788076105 | 20.56° C | 70% | 1016.5 hPa | 0 mm | - | - | - |
* Rain latest hour (hover to see other rain measurements)
** Current wind speed in m/s (hover to see current wind gust speed)